Location: Cedar Brake
(32.2526°N, 97.8459°W)
Time: 20:55:46
(UTC+00:00)

USA 281 - Pass Details

Date: 22 April 2026
Orbit: 1079 x 1080 km, 106.0° (Epoch: 5 January)

Event Time Altitude Azimuth Distance (km) Brightness Sun altitude
Exits shadow 07:58:47 36° 52° (NE) 1,653 4.4 -40.7°
Drops below altitude 10° 08:04:14 10° 357° (N) 2,924 6.0 -40.1°
Sets 08:06:57 0° 349° (N) 3,883 6.7 -39.8°
